PRIVATE WETTERSTATION BILLIGHEIM-ALLFELD                       ZURCK
Wetterdaten: Sonntag, 15.05.2016
Datum Zeit Temp. A. Temp. A. min Temp. A. max Feuchte A. Luftdruck Regen Wind Richtung Richtung Sonnenschein ET Solar Taupunkt Windchill Windben Empfang
15.05.2016 00:00 6,9 C 6,9 C 6,9 C 74 % 1014,5 hPa 0,0 l/m 0,2 km/h (0 Bft) N-NW 337 0 min 0,000 mm 0 W/m 2,6 C 6,9 C 3,2 km/h (1 Bft) 100 %
15.05.2016 00:10 6,9 C 6,9 C 6,9 C 74 % 1014,5 hPa 0,0 l/m 0,1 km/h (0 Bft) N-NW 338 0 min 0,000 mm 0 W/m 2,6 C 6,9 C 3,2 km/h (1 Bft) 90 %
15.05.2016 00:20 6,9 C 6,9 C 6,9 C 75 % 1014,6 hPa 0,0 l/m 0,3 km/h (0 Bft) N-NW 331 0 min 0,000 mm 0 W/m 2,8 C 6,9 C 6,4 km/h (2 Bft) 100 %
15.05.2016 00:30 6,9 C 6,9 C 6,9 C 76 % 1014,7 hPa 0,0 l/m 0,0 km/h (0 Bft) N-NW 332 0 min 0,000 mm 0 W/m 3,0 C 6,9 C 1,6 km/h (1 Bft) 100 %
15.05.2016 00:40 6,9 C 6,9 C 6,9 C 76 % 1014,8 hPa 0,0 l/m 0,1 km/h (0 Bft) N-NW 333 0 min 0,000 mm 0 W/m 3,0 C 6,9 C 4,8 km/h (1 Bft) 100 %
15.05.2016 00:50 6,9 C 6,9 C 6,9 C 77 % 1014,9 hPa 0,0 l/m 1,6 km/h (1 Bft) N-NW 337 0 min 0,000 mm 0 W/m 3,2 C 6,9 C 6,4 km/h (2 Bft) 100 %
15.05.2016 01:00 6,9 C 6,9 C 6,9 C 78 % 1014,9 hPa 0,0 l/m 1,6 km/h (1 Bft) N-NW 337 0 min 0,025 mm 0 W/m 3,3 C 6,9 C 8,0 km/h (2 Bft) 99 %
15.05.2016 01:10 6,8 C 6,8 C 6,9 C 77 % 1015,1 hPa 0,0 l/m 1,6 km/h (1 Bft) NW 315 0 min 0,000 mm 0 W/m 3,1 C 6,8 C 6,4 km/h (2 Bft) 100 %
15.05.2016 01:20 6,8 C 6,8 C 6,8 C 78 % 1015,3 hPa 0,0 l/m 0,0 km/h (0 Bft) NW 315 0 min 0,000 mm 0 W/m 3,2 C 6,8 C 4,8 km/h (1 Bft) 100 %
15.05.2016 01:30 6,7 C 6,7 C 6,8 C 78 % 1015,2 hPa 0,0 l/m 1,6 km/h (1 Bft) NW 315 0 min 0,000 mm 0 W/m 3,1 C 6,7 C 6,4 km/h (2 Bft) 100 %
15.05.2016 01:40 6,7 C 6,6 C 6,7 C 79 % 1015,1 hPa 0,0 l/m 0,0 km/h (0 Bft) N-NW 337 0 min 0,000 mm 0 W/m 3,3 C 6,7 C 6,4 km/h (2 Bft) 100 %
15.05.2016 01:50 6,5 C 6,5 C 6,6 C 80 % 1015,4 hPa 0,0 l/m 0,0 km/h (0 Bft) N-NW 337 0 min 0,000 mm 0 W/m 3,3 C 6,5 C 1,6 km/h (1 Bft) 94 %
15.05.2016 02:00 6,3 C 6,3 C 6,5 C 80 % 1015,4 hPa 0,0 l/m 0,0 km/h (0 Bft) N 360 0 min 0,025 mm 0 W/m 3,1 C 6,3 C 4,8 km/h (1 Bft) 92 %
15.05.2016 02:10 6,2 C 6,2 C 6,3 C 81 % 1015,5 hPa 0,0 l/m 0,0 km/h (0 Bft) NW 315 0 min 0,000 mm 0 W/m 3,2 C 6,2 C 6,4 km/h (2 Bft) 100 %
15.05.2016 02:20 6,1 C 6,1 C 6,2 C 80 % 1015,6 hPa 0,0 l/m 1,6 km/h (1 Bft) NW 315 0 min 0,000 mm 0 W/m 2,9 C 6,1 C 9,7 km/h (2 Bft) 100 %
15.05.2016 02:30 6,1 C 6,1 C 6,1 C 80 % 1015,6 hPa 0,0 l/m 3,2 km/h (1 Bft) NW 315 0 min 0,000 mm 0 W/m 2,9 C 6,1 C 11,3 km/h (2 Bft) 100 %
15.05.2016 02:40 6,1 C 6,1 C 6,1 C 79 % 1015,7 hPa 0,0 l/m 4,8 km/h (1 Bft) NW 315 0 min 0,000 mm 0 W/m 2,7 C 6,1 C 16,1 km/h (3 Bft) 100 %
15.05.2016 02:50 6,0 C 6,0 C 6,1 C 78 % 1015,9 hPa 0,0 l/m 3,2 km/h (1 Bft) NW 315 0 min 0,000 mm 0 W/m 2,5 C 6,0 C 9,7 km/h (2 Bft) 100 %
15.05.2016 03:00 5,8 C 5,8 C 6,0 C 79 % 1016,0 hPa 0,0 l/m 1,6 km/h (1 Bft) NW 315 0 min 0,025 mm 0 W/m 2,4 C 5,8 C 9,7 km/h (2 Bft) 100 %
15.05.2016 03:10 5,7 C 5,7 C 5,8 C 79 % 1015,9 hPa 0,0 l/m 1,6 km/h (1 Bft) NW 315 0 min 0,000 mm 0 W/m 2,3 C 5,7 C 8,0 km/h (2 Bft) 100 %
15.05.2016 03:20 5,6 C 5,6 C 5,7 C 80 % 1016,0 hPa 0,0 l/m 0,0 km/h (0 Bft) W-NW 292 0 min 0,000 mm 0 W/m 2,4 C 5,6 C 1,6 km/h (1 Bft) 100 %
15.05.2016 03:30 5,4 C 5,4 C 5,6 C 80 % 1016,0 hPa 0,0 l/m 1,6 km/h (1 Bft) W-NW 292 0 min 0,000 mm 0 W/m 2,2 C 5,4 C 6,4 km/h (2 Bft) 100 %
15.05.2016 03:40 5,3 C 5,3 C 5,4 C 80 % 1016,1 hPa 0,0 l/m 0,0 km/h (0 Bft) NW 315 0 min 0,000 mm 0 W/m 2,1 C 5,3 C 4,8 km/h (1 Bft) 100 %
15.05.2016 03:50 5,1 C 5,1 C 5,3 C 82 % 1016,1 hPa 0,0 l/m 0,0 km/h (0 Bft) N 0 0 min 0,000 mm 0 W/m 2,3 C 5,1 C 0,0 km/h (0 Bft) 100 %
15.05.2016 04:00 4,8 C 4,8 C 5,1 C 84 % 1016,2 hPa 0,0 l/m 0,0 km/h (0 Bft) N 0 0 min 0,000 mm 0 W/m 2,3 C 4,8 C 0,0 km/h (0 Bft) 90 %
15.05.2016 04:10 4,5 C 4,5 C 4,8 C 86 % 1016,2 hPa 0,0 l/m 0,0 km/h (0 Bft) N 0 0 min 0,000 mm 0 W/m 2,4 C 4,5 C 0,0 km/h (0 Bft) 100 %
15.05.2016 04:20 4,3 C 4,3 C 4,5 C 86 % 1016,2 hPa 0,0 l/m 0,0 km/h (0 Bft) N 0 0 min 0,000 mm 0 W/m 2,2 C 4,3 C 0,0 km/h (0 Bft) 100 %
15.05.2016 04:30 4,1 C 4,1 C 4,3 C 87 % 1016,4 hPa 0,0 l/m 0,0 km/h (0 Bft) N 0 0 min 0,000 mm 0 W/m 2,1 C 4,1 C 0,0 km/h (0 Bft) 100 %
15.05.2016 04:40 3,9 C 3,9 C 4,1 C 87 % 1016,5 hPa 0,0 l/m 0,0 km/h (0 Bft) N 0 0 min 0,000 mm 0 W/m 1,9 C 3,9 C 0,0 km/h (0 Bft) 100 %
15.05.2016 04:50 3,8 C 3,8 C 3,9 C 87 % 1016,6 hPa 0,0 l/m 0,0 km/h (0 Bft) N 0 0 min 0,000 mm 0 W/m 1,8 C 3,8 C 0,0 km/h (0 Bft) 100 %
15.05.2016 05:00 3,8 C 3,8 C 3,9 C 87 % 1016,5 hPa 0,0 l/m 0,0 km/h (0 Bft) NW 315 0 min 0,000 mm 0 W/m 1,8 C 3,8 C 1,6 km/h (1 Bft) 100 %
15.05.2016 05:10 3,7 C 3,7 C 3,8 C 87 % 1016,6 hPa 0,0 l/m 0,0 km/h (0 Bft) NW 315 0 min 0,000 mm 0 W/m 1,7 C 3,7 C 1,6 km/h (1 Bft) 100 %
15.05.2016 05:20 3,5 C 3,5 C 3,7 C 87 % 1016,9 hPa 0,0 l/m 0,0 km/h (0 Bft) NW 315 0 min 0,000 mm 0 W/m 1,5 C 3,5 C 1,6 km/h (1 Bft) 100 %
15.05.2016 05:30 3,2 C 3,2 C 3,5 C 88 % 1017,0 hPa 0,0 l/m 0,0 km/h (0 Bft) N 0 0 min 0,000 mm 0 W/m 1,4 C 3,2 C 0,0 km/h (0 Bft) 100 %
15.05.2016 05:40 3,1 C 3,1 C 3,2 C 88 % 1017,0 hPa 0,0 l/m 0,0 km/h (0 Bft) W-NW 292 0 min 0,000 mm 0 W/m 1,3 C 3,1 C 4,8 km/h (1 Bft) 91 %
15.05.2016 05:50 2,9 C 2,9 C 3,1 C 88 % 1017,1 hPa 0,0 l/m 0,0 km/h (0 Bft) W-NW 292 0 min 0,000 mm 0 W/m 1,1 C 2,9 C 3,2 km/h (1 Bft) 100 %
15.05.2016 06:00 2,7 C 2,7 C 2,9 C 89 % 1017,2 hPa 0,0 l/m 0,0 km/h (0 Bft) SW 225 0 min 0,000 mm 0 W/m 1,1 C 2,7 C 1,6 km/h (1 Bft) 100 %
15.05.2016 06:10 2,7 C 2,7 C 2,7 C 89 % 1017,2 hPa 0,0 l/m 0,0 km/h (0 Bft) N 0 0 min 0,000 mm 0 W/m 1,1 C 2,7 C 0,0 km/h (0 Bft) 100 %
15.05.2016 06:20 2,7 C 2,7 C 2,7 C 89 % 1017,3 hPa 0,0 l/m 0,0 km/h (0 Bft) SW 225 0 min 0,000 mm 0 W/m 1,1 C 2,7 C 3,2 km/h (1 Bft) 100 %
15.05.2016 06:30 2,8 C 2,7 C 2,8 C 89 % 1017,3 hPa 0,0 l/m 0,0 km/h (0 Bft) N 0 0 min 0,000 mm 0 W/m 1,2 C 2,8 C 0,0 km/h (0 Bft) 100 %
15.05.2016 06:40 2,8 C 2,8 C 2,8 C 89 % 1017,5 hPa 0,0 l/m 0,0 km/h (0 Bft) SW 225 0 min 0,000 mm 0 W/m 1,2 C 2,8 C 1,6 km/h (1 Bft) 100 %
15.05.2016 06:50 3,0 C 2,8 C 3,0 C 89 % 1017,7 hPa 0,0 l/m 0,0 km/h (0 Bft) SW 225 0 min 0,000 mm 0 W/m 1,4 C 3,0 C 1,6 km/h (1 Bft) 100 %
15.05.2016 07:00 3,2 C 3,0 C 3,2 C 89 % 1017,7 hPa 0,0 l/m 0,0 km/h (0 Bft) N 0 0 min 0,000 mm 9 W/m 1,6 C 3,2 C 0,0 km/h (0 Bft) 100 %
15.05.2016 07:10 3,3 C 3,1 C 3,3 C 89 % 1017,8 hPa 0,0 l/m 0,0 km/h (0 Bft) N 0 0 min 0,000 mm 14 W/m 1,7 C 3,3 C 0,0 km/h (0 Bft) 90 %
15.05.2016 07:20 3,4 C 3,3 C 3,4 C 89 % 1017,8 hPa 0,0 l/m 0,0 km/h (0 Bft) SW 225 0 min 0,000 mm 21 W/m 1,8 C 3,4 C 1,6 km/h (1 Bft) 100 %
15.05.2016 07:30 3,6 C 3,4 C 3,6 C 89 % 1018,0 hPa 0,0 l/m 3,2 km/h (1 Bft) SW 225 0 min 0,000 mm 14 W/m 2,0 C 3,6 C 11,3 km/h (2 Bft) 100 %
15.05.2016 07:40 3,8 C 3,6 C 3,8 C 88 % 1018,0 hPa 0,0 l/m 1,6 km/h (1 Bft) W-SW 247 0 min 0,000 mm 26 W/m 2,0 C 3,8 C 9,7 km/h (2 Bft) 100 %
15.05.2016 07:50 4,1 C 3,8 C 4,1 C 87 % 1018,2 hPa 0,0 l/m 3,2 km/h (1 Bft) W-SW 247 0 min 0,000 mm 37 W/m 2,1 C 4,1 C 11,3 km/h (2 Bft) 100 %
15.05.2016 08:00 4,3 C 4,1 C 4,3 C 85 % 1018,1 hPa 0,0 l/m 1,6 km/h (1 Bft) W 270 0 min 0,000 mm 67 W/m 2,0 C 4,3 C 9,7 km/h (2 Bft) 100 %
15.05.2016 08:10 4,6 C 4,3 C 4,6 C 84 % 1018,1 hPa 0,0 l/m 1,6 km/h (1 Bft) W 270 0 min 0,000 mm 70 W/m 2,1 C 4,6 C 11,3 km/h (2 Bft) 100 %
15.05.2016 08:20 4,9 C 4,6 C 4,9 C 83 % 1018,2 hPa 0,0 l/m 3,2 km/h (1 Bft) W-NW 292 0 min 0,000 mm 134 W/m 2,3 C 4,9 C 14,5 km/h (3 Bft) 100 %
15.05.2016 08:30 5,4 C 4,9 C 5,4 C 83 % 1018,1 hPa 0,0 l/m 1,6 km/h (1 Bft) W 270 10 min 0,000 mm 373 W/m 2,7 C 5,4 C 11,3 km/h (2 Bft) 100 %
15.05.2016 08:40 6,3 C 5,4 C 6,3 C 80 % 1018,3 hPa 0,0 l/m 3,2 km/h (1 Bft) W 270 10 min 0,000 mm 406 W/m 3,1 C 6,3 C 14,5 km/h (3 Bft) 100 %
15.05.2016 08:50 6,9 C 6,3 C 6,9 C 81 % 1018,4 hPa 0,0 l/m 4,8 km/h (1 Bft) W 270 10 min 0,000 mm 461 W/m 3,9 C 6,9 C 14,5 km/h (3 Bft) 100 %
15.05.2016 09:00 7,7 C 6,9 C 7,7 C 76 % 1018,4 hPa 0,0 l/m 4,8 km/h (1 Bft) W-SW 247 10 min 0,102 mm 519 W/m 3,7 C 7,7 C 16,1 km/h (3 Bft) 99 %
15.05.2016 09:10 8,0 C 7,7 C 8,0 C 74 % 1018,5 hPa 0,0 l/m 8,0 km/h (2 Bft) W 270 10 min 0,000 mm 520 W/m 3,7 C 6,8 C 17,7 km/h (3 Bft) 98 %
15.05.2016 09:20 8,1 C 8,0 C 8,1 C 72 % 1018,6 hPa 0,0 l/m 6,4 km/h (2 Bft) W-NW 292 10 min 0,000 mm 650 W/m 3,4 C 8,1 C 19,3 km/h (3 Bft) 97 %
15.05.2016 09:30 8,2 C 8,1 C 8,3 C 71 % 1018,8 hPa 0,0 l/m 6,4 km/h (2 Bft) W-SW 247 10 min 0,000 mm 262 W/m 3,3 C 8,2 C 19,3 km/h (3 Bft) 89 %
15.05.2016 09:40 7,7 C 7,7 C 8,2 C 70 % 1018,7 hPa 0,0 l/m 8,0 km/h (2 Bft) W 270 10 min 0,000 mm 174 W/m 2,6 C 6,4 C 20,9 km/h (4 Bft) 98 %
15.05.2016 09:50 7,6 C 7,5 C 7,7 C 73 % 1018,7 hPa 0,0 l/m 6,4 km/h (2 Bft) W-NW 292 10 min 0,000 mm 330 W/m 3,1 C 7,6 C 16,1 km/h (3 Bft) 96 %
15.05.2016 10:00 7,7 C 7,6 C 7,7 C 72 % 1018,7 hPa 0,0 l/m 6,4 km/h (2 Bft) NW 315 10 min 0,152 mm 274 W/m 3,0 C 7,7 C 17,7 km/h (3 Bft) 98 %
15.05.2016 10:10 7,6 C 7,6 C 7,8 C 69 % 1018,7 hPa 0,0 l/m 8,0 km/h (2 Bft) W-NW 292 10 min 0,000 mm 218 W/m 2,3 C 6,3 C 24,1 km/h (4 Bft) 98 %
15.05.2016 10:20 8,3 C 7,6 C 8,3 C 68 % 1018,7 hPa 0,0 l/m 11,3 km/h (2 Bft) W-NW 292 10 min 0,000 mm 838 W/m 2,7 C 4,9 C 24,1 km/h (4 Bft) 97 %
15.05.2016 10:30 8,6 C 8,3 C 8,6 C 70 % 1018,7 hPa 0,0 l/m 9,7 km/h (2 Bft) W-NW 292 10 min 0,000 mm 735 W/m 3,4 C 6,2 C 22,5 km/h (4 Bft) 98 %
15.05.2016 10:40 9,4 C 8,7 C 9,4 C 64 % 1018,7 hPa 0,0 l/m 12,9 km/h (3 Bft) W-NW 292 10 min 0,000 mm 777 W/m 2,9 C 5,4 C 32,2 km/h (5 Bft) 97 %
15.05.2016 10:50 10,0 C 9,4 C 10,0 C 60 % 1018,7 hPa 0,0 l/m 8,0 km/h (2 Bft) W-NW 292 10 min 0,000 mm 907 W/m 2,6 C 8,9 C 25,7 km/h (4 Bft) 98 %
15.05.2016 11:00 9,6 C 9,6 C 10,0 C 62 % 1018,7 hPa 0,0 l/m 9,7 km/h (2 Bft) W 270 10 min 0,254 mm 353 W/m 2,7 C 7,3 C 22,5 km/h (4 Bft) 97 %
15.05.2016 11:10 9,8 C 9,6 C 9,8 C 66 % 1018,7 hPa 0,0 l/m 6,4 km/h (2 Bft) W-NW 292 10 min 0,000 mm 939 W/m 3,8 C 9,8 C 19,3 km/h (3 Bft) 98 %
15.05.2016 11:20 10,6 C 9,8 C 10,6 C 63 % 1018,8 hPa 0,0 l/m 9,7 km/h (2 Bft) W-SW 247 10 min 0,000 mm 1165 W/m 3,9 C 8,4 C 27,4 km/h (4 Bft) 97 %
15.05.2016 11:30 9,8 C 9,8 C 10,6 C 62 % 1018,8 hPa 0,0 l/m 8,0 km/h (2 Bft) SW 225 10 min 0,000 mm 243 W/m 2,9 C 8,6 C 19,3 km/h (3 Bft) 97 %
15.05.2016 11:40 9,3 C 9,3 C 9,8 C 64 % 1018,8 hPa 0,0 l/m 8,0 km/h (2 Bft) W-NW 292 10 min 0,000 mm 383 W/m 2,8 C 8,1 C 19,3 km/h (3 Bft) 98 %
15.05.2016 11:50 9,6 C 9,3 C 9,6 C 62 % 1018,8 hPa 0,0 l/m 9,7 km/h (2 Bft) W 270 10 min 0,000 mm 450 W/m 2,7 C 7,3 C 20,9 km/h (4 Bft) 97 %
15.05.2016 12:00 9,1 C 9,1 C 9,6 C 65 % 1018,9 hPa 0,0 l/m 9,7 km/h (2 Bft) W 270 10 min 0,203 mm 251 W/m 2,9 C 6,8 C 24,1 km/h (4 Bft) 98 %
15.05.2016 12:10 8,8 C 8,8 C 9,1 C 67 % 1018,9 hPa 0,0 l/m 9,7 km/h (2 Bft) SW 225 10 min 0,000 mm 285 W/m 3,0 C 6,5 C 22,5 km/h (4 Bft) 99 %
15.05.2016 12:20 8,8 C 8,8 C 8,8 C 67 % 1019,0 hPa 0,0 l/m 9,7 km/h (2 Bft) W-SW 247 10 min 0,000 mm 244 W/m 3,0 C 6,5 C 25,7 km/h (4 Bft) 100 %
15.05.2016 12:30 8,6 C 8,6 C 8,7 C 67 % 1019,0 hPa 0,0 l/m 9,7 km/h (2 Bft) W 270 10 min 0,000 mm 322 W/m 2,8 C 6,2 C 20,9 km/h (4 Bft) 100 %
15.05.2016 12:40 8,9 C 8,5 C 8,9 C 68 % 1019,0 hPa 0,0 l/m 6,4 km/h (2 Bft) W-SW 247 10 min 0,000 mm 425 W/m 3,3 C 8,9 C 19,3 km/h (3 Bft) 100 %
15.05.2016 12:50 9,2 C 8,9 C 9,2 C 66 % 1019,0 hPa 0,0 l/m 6,4 km/h (2 Bft) W-SW 247 10 min 0,000 mm 362 W/m 3,2 C 9,2 C 17,7 km/h (3 Bft) 100 %
15.05.2016 13:00 9,7 C 9,2 C 9,7 C 66 % 1019,0 hPa 0,0 l/m 6,4 km/h (2 Bft) W 270 10 min 0,178 mm 654 W/m 3,7 C 9,7 C 19,3 km/h (3 Bft) 100 %
15.05.2016 13:10 10,4 C 9,2 C 10,4 C 61 % 1019,2 hPa 0,0 l/m 13,9 km/h (3 Bft) W-SW 250 10 min 0,001 mm 469 W/m 3,2 C 6,1 C 25,7 km/h (4 Bft) 97 %
15.05.2016 13:20 10,6 C 10,3 C 10,6 C 61 % 1019,2 hPa 0,0 l/m 9,8 km/h (2 Bft) W-NW 298 10 min 0,000 mm 411 W/m 3,4 C 8,4 C 24,1 km/h (4 Bft) 97 %
15.05.2016 13:30 10,3 C 10,3 C 10,6 C 62 % 1019,1 hPa 0,0 l/m 7,1 km/h (2 Bft) W-NW 288 0 min 0,000 mm 137 W/m 3,3 C 9,8 C 19,3 km/h (3 Bft) 98 %
15.05.2016 13:40 9,6 C 9,6 C 10,3 C 62 % 1019,3 hPa 0,0 l/m 12,8 km/h (3 Bft) NW 306 0 min 0,000 mm 97 W/m 2,7 C 5,7 C 27,4 km/h (4 Bft) 97 %
15.05.2016 13:50 9,3 C 9,3 C 9,6 C 65 % 1019,2 hPa 0,0 l/m 6,0 km/h (2 Bft) SW 216 10 min 0,000 mm 353 W/m 3,1 C 9,3 C 14,5 km/h (3 Bft) 98 %
15.05.2016 14:00 9,4 C 9,3 C 9,4 C 65 % 1019,3 hPa 0,0 l/m 9,8 km/h (2 Bft) W 269 10 min 0,203 mm 250 W/m 3,2 C 7,1 C 22,5 km/h (4 Bft) 97 %
15.05.2016 14:10 9,4 C 9,4 C 9,4 C 64 % 1019,1 hPa 0,0 l/m 13,7 km/h (3 Bft) W 264 10 min 0,000 mm 373 W/m 2,9 C 5,0 C 25,7 km/h (4 Bft) 97 %
15.05.2016 14:20 9,6 C 9,4 C 9,6 C 66 % 1019,2 hPa 0,0 l/m 11,5 km/h (2 Bft) W-SW 247 10 min 0,000 mm 1104 W/m 3,6 C 6,3 C 25,7 km/h (4 Bft) 98 %
15.05.2016 14:30 9,8 C 9,6 C 9,9 C 65 % 1019,0 hPa 0,0 l/m 10,5 km/h (2 Bft) W 269 10 min 0,000 mm 248 W/m 3,5 C 7,1 C 22,5 km/h (4 Bft) 97 %
15.05.2016 14:40 9,6 C 9,6 C 9,8 C 63 % 1019,2 hPa 0,0 l/m 12,3 km/h (3 Bft) W-SW 254 10 min 0,000 mm 262 W/m 2,9 C 5,9 C 27,4 km/h (4 Bft) 98 %
15.05.2016 14:50 9,8 C 9,6 C 9,8 C 62 % 1019,2 hPa 0,0 l/m 9,9 km/h (2 Bft) W-NW 293 10 min 0,000 mm 404 W/m 2,9 C 7,4 C 27,4 km/h (4 Bft) 98 %
15.05.2016 15:00 10,1 C 9,8 C 10,1 C 62 % 1019,2 hPa 0,0 l/m 10,8 km/h (2 Bft) W 280 10 min 0,229 mm 371 W/m 3,2 C 7,3 C 29,0 km/h (5 Bft) 100 %
15.05.2016 15:10 10,0 C 10,0 C 10,1 C 64 % 1019,1 hPa 0,0 l/m 9,3 km/h (2 Bft) W 262 10 min 0,000 mm 197 W/m 3,5 C 8,0 C 24,1 km/h (4 Bft) 100 %
15.05.2016 15:20 9,8 C 9,8 C 10,0 C 63 % 1019,3 hPa 0,0 l/m 11,5 km/h (2 Bft) W 261 10 min 0,000 mm 218 W/m 3,1 C 6,5 C 25,7 km/h (4 Bft) 100 %
15.05.2016 15:30 9,6 C 9,6 C 9,8 C 63 % 1019,3 hPa 0,0 l/m 12,8 km/h (3 Bft) SW 229 10 min 0,000 mm 216 W/m 2,9 C 5,7 C 33,8 km/h (5 Bft) 100 %
15.05.2016 15:40 9,6 C 9,5 C 9,6 C 65 % 1019,2 hPa 0,0 l/m 11,4 km/h (2 Bft) SW 219 10 min 0,000 mm 167 W/m 3,4 C 6,4 C 29,0 km/h (5 Bft) 100 %
15.05.2016 15:50 9,5 C 9,4 C 9,6 C 64 % 1019,2 hPa 0,0 l/m 10,0 km/h (2 Bft) W-NW 289 10 min 0,000 mm 192 W/m 3,0 C 7,0 C 27,4 km/h (4 Bft) 100 %
15.05.2016 16:00 9,5 C 9,4 C 9,5 C 66 % 1019,1 hPa 0,0 l/m 8,4 km/h (2 Bft) W-SW 241 10 min 0,152 mm 153 W/m 3,5 C 8,1 C 22,5 km/h (4 Bft) 100 %
15.05.2016 16:10 9,4 C 9,4 C 9,5 C 64 % 1019,0 hPa 0,0 l/m 3,9 km/h (1 Bft) W 259 0 min 0,000 mm 39 W/m 2,9 C 9,4 C 11,3 km/h (2 Bft) 100 %
15.05.2016 16:20 9,3 C 9,3 C 9,4 C 63 % 1019,3 hPa 0,0 l/m 8,9 km/h (2 Bft) W-SW 257 0 min 0,000 mm 42 W/m 2,6 C 7,5 C 22,5 km/h (4 Bft) 100 %
15.05.2016 16:30 9,0 C 9,0 C 9,3 C 67 % 1019,2 hPa 0,0 l/m 9,7 km/h (2 Bft) W 274 10 min 0,000 mm 183 W/m 3,2 C 6,7 C 24,1 km/h (4 Bft) 100 %
15.05.2016 16:40 9,3 C 9,0 C 9,3 C 65 % 1019,2 hPa 0,0 l/m 6,8 km/h (2 Bft) SW 228 10 min 0,000 mm 279 W/m 3,1 C 9,0 C 19,3 km/h (3 Bft) 100 %
15.05.2016 16:50 9,6 C 9,3 C 9,6 C 65 % 1019,1 hPa 0,0 l/m 8,6 km/h (2 Bft) NW 306 0 min 0,000 mm 127 W/m 3,4 C 8,0 C 20,9 km/h (4 Bft) 100 %
15.05.2016 17:00 9,5 C 9,5 C 9,6 C 65 % 1019,3 hPa 0,0 l/m 6,6 km/h (2 Bft) W-NW 296 0 min 0,077 mm 0 W/m 3,3 C 9,4 C 17,7 km/h (3 Bft) 100 %
15.05.2016 17:10 9,2 C 9,2 C 9,5 C 66 % 1019,3 hPa 0,0 l/m 5,4 km/h (1 Bft) W-NW 296 0 min 0,000 mm 23 W/m 3,2 C 9,2 C 14,5 km/h (3 Bft) 100 %
15.05.2016 17:20 8,9 C 8,9 C 9,2 C 68 % 1019,2 hPa 0,0 l/m 5,7 km/h (1 Bft) W-NW 292 0 min 0,000 mm 84 W/m 3,3 C 8,9 C 17,7 km/h (3 Bft) 100 %
15.05.2016 17:30 9,2 C 8,9 C 9,2 C 70 % 1019,1 hPa 0,0 l/m 2,4 km/h (1 Bft) W-SW 255 10 min 0,000 mm 232 W/m 4,0 C 9,2 C 12,9 km/h (3 Bft) 100 %
15.05.2016 17:40 9,5 C 9,2 C 9,6 C 65 % 1019,1 hPa 0,0 l/m 6,8 km/h (2 Bft) W 267 10 min 0,000 mm 186 W/m 3,3 C 9,2 C 16,1 km/h (3 Bft) 100 %
15.05.2016 17:50 9,8 C 9,5 C 9,8 C 60 % 1019,1 hPa 0,0 l/m 7,0 km/h (2 Bft) W 277 0 min 0,000 mm 144 W/m 2,4 C 9,4 C 19,3 km/h (3 Bft) 100 %
15.05.2016 18:00 9,8 C 9,8 C 9,8 C 63 % 1019,1 hPa 0,0 l/m 6,8 km/h (2 Bft) W-SW 240 0 min 0,076 mm 56 W/m 3,1 C 9,5 C 20,9 km/h (4 Bft) 100 %
15.05.2016 18:10 9,5 C 9,5 C 9,8 C 63 % 1019,2 hPa 0,0 l/m 10,5 km/h (2 Bft) W-SW 258 0 min 0,000 mm 21 W/m 2,8 C 6,8 C 27,4 km/h (4 Bft) 100 %
15.05.2016 18:20 9,1 C 9,1 C 9,5 C 66 % 1019,2 hPa 0,0 l/m 12,6 km/h (3 Bft) W-NW 289 0 min 0,000 mm 39 W/m 3,1 C 5,2 C 29,0 km/h (5 Bft) 100 %
15.05.2016 18:30 8,7 C 8,7 C 9,1 C 69 % 1019,1 hPa 0,0 l/m 7,6 km/h (2 Bft) W 261 0 min 0,000 mm 76 W/m 3,3 C 7,8 C 17,7 km/h (3 Bft) 100 %
15.05.2016 18:40 8,7 C 8,7 C 8,7 C 72 % 1019,0 hPa 0,0 l/m 4,1 km/h (1 Bft) S-SW 207 0 min 0,000 mm 98 W/m 3,9 C 8,7 C 11,3 km/h (2 Bft) 100 %
15.05.2016 18:50 8,8 C 8,7 C 8,8 C 72 % 1019,1 hPa 0,0 l/m 3,9 km/h (1 Bft) SW 236 0 min 0,000 mm 33 W/m 4,0 C 8,8 C 9,7 km/h (2 Bft) 100 %
15.05.2016 19:00 8,8 C 8,8 C 8,8 C 71 % 1019,1 hPa 0,0 l/m 2,2 km/h (1 Bft) SW 232 0 min 0,051 mm 54 W/m 3,8 C 8,8 C 9,7 km/h (2 Bft) 100 %
15.05.2016 19:10 8,9 C 8,8 C 8,9 C 71 % 1019,1 hPa 0,0 l/m 3,0 km/h (1 Bft) W 269 0 min 0,000 mm 56 W/m 3,9 C 8,9 C 11,3 km/h (2 Bft) 100 %
15.05.2016 19:20 9,1 C 8,9 C 9,1 C 69 % 1019,1 hPa 0,0 l/m 4,1 km/h (1 Bft) W 260 0 min 0,000 mm 83 W/m 3,7 C 9,1 C 14,5 km/h (3 Bft) 100 %
15.05.2016 19:30 9,2 C 9,1 C 9,2 C 65 % 1019,1 hPa 0,0 l/m 5,6 km/h (1 Bft) W 279 0 min 0,000 mm 46 W/m 3,0 C 9,2 C 20,9 km/h (4 Bft) 100 %
15.05.2016 19:40 9,3 C 9,2 C 9,3 C 64 % 1019,1 hPa 0,0 l/m 6,0 km/h (2 Bft) W-SW 258 0 min 0,000 mm 39 W/m 2,8 C 9,3 C 17,7 km/h (3 Bft) 100 %
15.05.2016 19:50 9,2 C 9,2 C 9,3 C 65 % 1019,1 hPa 0,0 l/m 3,1 km/h (1 Bft) W-SW 255 0 min 0,000 mm 25 W/m 3,0 C 9,2 C 14,5 km/h (3 Bft) 100 %
15.05.2016 20:00 9,2 C 9,2 C 9,3 C 66 % 1019,1 hPa 0,0 l/m 1,5 km/h (1 Bft) SW 234 0 min 0,050 mm 21 W/m 3,2 C 9,2 C 9,7 km/h (2 Bft) 100 %
15.05.2016 20:10 9,1 C 9,1 C 9,2 C 69 % 1019,3 hPa 0,0 l/m 1,2 km/h (1 Bft) S-SW 209 0 min 0,000 mm 21 W/m 3,7 C 9,1 C 9,7 km/h (2 Bft) 100 %
15.05.2016 20:20 8,9 C 8,9 C 9,1 C 68 % 1019,4 hPa 0,0 l/m 4,1 km/h (1 Bft) W 275 0 min 0,000 mm 0 W/m 3,3 C 8,9 C 19,3 km/h (3 Bft) 100 %
15.05.2016 20:30 8,8 C 8,8 C 8,9 C 68 % 1019,5 hPa 0,0 l/m 5,1 km/h (1 Bft) SW 234 0 min 0,000 mm 0 W/m 3,2 C 8,8 C 20,9 km/h (4 Bft) 100 %
15.05.2016 20:40 8,7 C 8,7 C 8,8 C 67 % 1019,5 hPa 0,0 l/m 4,5 km/h (1 Bft) W 263 0 min 0,000 mm 0 W/m 2,9 C 8,7 C 17,7 km/h (3 Bft) 100 %
15.05.2016 20:50 8,6 C 8,6 C 8,7 C 68 % 1019,4 hPa 0,0 l/m 3,0 km/h (1 Bft) W-SW 237 0 min 0,000 mm 0 W/m 3,0 C 8,6 C 9,7 km/h (2 Bft) 100 %
15.05.2016 21:00 8,4 C 8,4 C 8,6 C 70 % 1019,6 hPa 0,0 l/m 0,2 km/h (0 Bft) SW 234 0 min 0,026 mm 0 W/m 3,3 C 8,4 C 4,8 km/h (1 Bft) 100 %
15.05.2016 21:10 8,3 C 8,3 C 8,4 C 72 % 1019,6 hPa 0,0 l/m 1,6 km/h (1 Bft) SW 225 0 min 0,000 mm 0 W/m 3,6 C 8,3 C 8,0 km/h (2 Bft) 100 %
15.05.2016 21:20 8,1 C 8,1 C 8,3 C 73 % 1019,6 hPa 0,0 l/m 1,6 km/h (1 Bft) SW 225 0 min 0,000 mm 0 W/m 3,6 C 8,1 C 8,0 km/h (2 Bft) 100 %
15.05.2016 21:30 8,1 C 8,1 C 8,1 C 76 % 1019,8 hPa 0,0 l/m 0,0 km/h (0 Bft) SW 225 0 min 0,000 mm 0 W/m 4,1 C 8,1 C 6,4 km/h (2 Bft) 99 %
15.05.2016 21:40 7,9 C 7,9 C 8,1 C 78 % 1019,9 hPa 0,2 l/m 4,8 km/h (1 Bft) W-NW 292 0 min 0,000 mm 0 W/m 4,3 C 7,9 C 19,3 km/h (3 Bft) 97 %
15.05.2016 21:50 7,7 C 7,7 C 7,9 C 77 % 1019,7 hPa 0,0 l/m 0,0 km/h (0 Bft) W-NW 292 0 min 0,000 mm 0 W/m 3,9 C 7,7 C 8,0 km/h (2 Bft) 98 %
15.05.2016 22:00 7,6 C 7,6 C 7,7 C 80 % 1019,9 hPa 0,0 l/m 0,0 km/h (0 Bft) N 0 0 min 0,025 mm 0 W/m 4,4 C 7,6 C 0,0 km/h (0 Bft) 98 %
15.05.2016 22:10 7,4 C 7,4 C 7,6 C 83 % 1019,9 hPa 0,0 l/m 0,0 km/h (0 Bft) N 0 0 min 0,000 mm 0 W/m 4,7 C 7,4 C 0,0 km/h (0 Bft) 98 %
15.05.2016 22:20 7,3 C 7,3 C 7,4 C 85 % 1019,9 hPa 0,0 l/m 0,0 km/h (0 Bft) W-NW 292 0 min 0,000 mm 0 W/m 4,9 C 7,3 C 1,6 km/h (1 Bft) 96 %
15.05.2016 22:30 6,9 C 6,9 C 7,3 C 84 % 1020,0 hPa 0,0 l/m 0,0 km/h (0 Bft) N 0 0 min 0,000 mm 0 W/m 4,4 C 6,9 C 0,0 km/h (0 Bft) 98 %
15.05.2016 22:40 6,8 C 6,8 C 6,9 C 85 % 1020,0 hPa 0,0 l/m 0,0 km/h (0 Bft) N 0 0 min 0,000 mm 0 W/m 4,5 C 6,8 C 0,0 km/h (0 Bft) 97 %
15.05.2016 22:50 6,7 C 6,7 C 6,8 C 84 % 1020,1 hPa 0,0 l/m 0,0 km/h (0 Bft) W-NW 292 0 min 0,000 mm 0 W/m 4,2 C 6,7 C 1,6 km/h (1 Bft) 98 %
15.05.2016 23:00 6,7 C 6,7 C 6,7 C 83 % 1020,1 hPa 0,0 l/m 0,0 km/h (0 Bft) W-NW 292 0 min 0,000 mm 0 W/m 4,0 C 6,7 C 1,6 km/h (1 Bft) 98 %
15.05.2016 23:10 6,7 C 6,7 C 6,8 C 83 % 1020,0 hPa 0,0 l/m 0,0 km/h (0 Bft) W-NW 292 0 min 0,000 mm 0 W/m 4,0 C 6,7 C 3,2 km/h (1 Bft) 97 %
15.05.2016 23:20 6,8 C 6,7 C 6,8 C 83 % 1020,0 hPa 0,0 l/m 0,0 km/h (0 Bft) N 0 0 min 0,000 mm 0 W/m 4,1 C 6,8 C 0,0 km/h (0 Bft) 98 %
15.05.2016 23:30 6,8 C 6,8 C 6,8 C 83 % 1020,1 hPa 0,0 l/m 0,0 km/h (0 Bft) W-NW 292 0 min 0,000 mm 0 W/m 4,1 C 6,8 C 1,6 km/h (1 Bft) 97 %
15.05.2016 23:40 6,8 C 6,8 C 6,8 C 83 % 1020,1 hPa 0,0 l/m 0,0 km/h (0 Bft) W-NW 292 0 min 0,000 mm 0 W/m 4,1 C 6,8 C 3,2 km/h (1 Bft) 98 %
15.05.2016 23:50 6,8 C 6,8 C 6,8 C 82 % 1020,2 hPa 0,0 l/m 0,0 km/h (0 Bft) W-SW 247 0 min 0,000 mm 0 W/m 3,9 C 6,8 C 4,8 km/h (1 Bft) 97 %
_ Min-Zeit 06:00 06:00 06:10 10:50 00:00 - 00:30 - - - - - 06:00 06:00 03:50 09:30
Minimum _ 2,7 C 2,7 C 2,7 C 60 % 1014,5 hPa - 0,0 km/h (0 Bft) - - - - - 1,1 C 2,7 C 0,0 km/h (0 Bft) 89 %
_ Max-Zeit 11:20 13:20 11:20 06:00 23:50 21:40 13:10 - - 08:30 11:00 11:20 22:20 11:10 15:30 00:00
Maximum _ 10,6 C 10,3 C 10,6 C 89 % 1020,2 hPa 0,2 l/m 13,9 km/h
W-SW (3 Bft)
- - 10 min 0,254 mm 1165 W/m 4,9 C 9,8 C 33,8 km/h
W-SW (5 Bft)
100 %
Durchschnitt _ 7,4 C 7,3 C 7,5 C 74 % 1018,2 hPa #0,2 l/m 4,3 km/h (1 Bft) W - #8:00 h #1,854 mm 273 W/m 3,0 C 6,7 C 12,7 km/h (3 Bft) 99 %
PRIVATE WETTERSTATION BILLIGHEIM-ALLFELD - www.neckar-odenwald-wetter.de - Holger Sonntag